This demonstration page uses our WeatherBlox Daily Observations layout. Learn more.

Left ArrowRight Arrow

Hourly Observations for August 15, 2018

Temp ( °F °C ) Dew Point ( °F °C ) Humidity (%) Winds ( mph kmh ) Pressure ( in mb ) Visibility ( mi km ) Precip ( " mm )
12:59 am 00:59 Partly Cloudy 75 23.9 70 21.1 84 84 SW 7 11 30.01 1016 9 14 0.00 0.00
1:59 am 01:59 Partly Cloudy 74 23.3 70 21.1 88 88 SW 6 9 30.00 1016 9 14 0.00 0.00
2:59 am 02:59 Partly Cloudy 74 23.3 70 21.1 88 88 WSW 3 6 30.01 1016 9 14 0.00 0.00
3:59 am 03:59 Partly Cloudy 75 23.9 70 21.1 84 84 WSW 6 9 30.00 1016 10 16 0.00 0.00
4:59 am 04:59 Partly Cloudy 74 23.3 70 21.1 88 88 WSW 6 9 29.99 1016 9 14 0.00 0.00
5:59 am 05:59 Partly Cloudy 73 22.8 70 21.1 90 90 SW 6 9 29.99 1016 8 13 0.00 0.00
6:59 am 06:59 Sunny 73 22.8 70 21.1 90 90 SW 6 9 30.01 1016 7 11 0.00 0.00
7:59 am 07:59 Mostly Sunny 76 24.4 71 21.7 85 85 SW 3 6 30.03 1017 7 11 0.00 0.00
8:59 am 08:59 Mostly Sunny 78 25.6 72 22.2 82 82 W 5 7 30.05 1018 7 11 0.00 0.00
9:59 am 09:59 Mostly Sunny 80 26.7 71 21.7 74 74 WNW 5 7 30.05 1018 8 13 0.00 0.00
10:59 am 10:59 Partly Cloudy 82 27.8 70 21.1 67 67 WNW 3 6 30.07 1018 8 13 0.00 0.00
11:59 am 11:59 Partly Cloudy 85 29.4 69 20.6 59 59 WNW 6 9 30.07 1018 9 14 0.00 0.00
12:59 pm 12:59 Partly Cloudy 86 30 70 21.1 59 59 WNW 8 13 30.06 1018 10 16 0.00 0.00
1:59 pm 13:59 Partly Cloudy 87 30.6 69 20.6 55 55 W 7 11 30.04 1017 10 16 0.00 0.00
2:59 pm 14:59 Partly Cloudy 88 31.1 69 20.6 54 54 WNW 8 13 30.03 1017 10 16 0.00 0.00
3:59 pm 15:59 Partly Cloudy 88 31.1 68 20 52 52 WNW 8 13 30.02 1017 10 16 0.00 0.00
4:59 pm 16:59 Partly Cloudy 89 31.7 67 19.4 48 48 VRB 6 9 30.02 1017 10 16 0.00 0.00
5:59 pm 17:59 Partly Cloudy 87 30.6 66 18.9 50 50 W 5 7 30.02 1017 10 16 0.00 0.00
6:59 pm 18:59 Mostly Cloudy 86 30 71 21.7 61 61 ENE 6 9 30.03 1017 9 14 0.00 0.00
7:59 pm 19:59 Mostly Cloudy 82 27.8 70 21.1 67 67 ESE 3 6 30.05 1018 9 14 0.00 0.00
8:59 pm 20:59 Mostly Cloudy 80 26.7 71 21.7 74 74 SE 7 11 30.06 1018 9 14 0.00 0.00
9:59 pm 21:59 Mostly Cloudy 79 26.1 71 21.7 77 77 SSE 5 7 30.08 1019 9 14 0.00 0.00
10:59 pm 22:59 Mostly Cloudy 78 25.6 70 21.1 76 76 S 5 7 30.08 1019 9 14 0.00 0.00
11:59 pm 23:59 Mostly Cloudy 78 25.6 70 21.1 76 76 S 5 7 30.08 1019 9 14 0.00 0.00

Powered by AerisWeather